Location: Roland
(31.1349°N, 85.4372°W)
Time: 21:14:29
(UTC+00:00)

Tiros 1 - Pass Details

Date: 21 April 2021
Orbit: 630 x 664 km, 48.4° (Epoch: 05 May)

Event Time Altitude Azimuth Distance (km) Brightness Sun altitude
Rises 18:27:47 0° 321° (NW) 2,919 10.4 68.1°
Reaches altitude 10° 18:31:38 10° 353° (N) 2,007 9.6 67.6°
Maximum altitude 18:33:24 12° 16° (NNE) 1,877 9.5 67.4°
Drops below altitude 10° 18:35:10 10° 39° (NE) 2,005 9.6 67.2°
Sets 18:38:59 0° 70° (ENE) 2,912 10.3 66.7°
